Printer-friendly version

IAU Minor Planet Center

Minor Planet Center

MPEC 2004-B74 : 2004 BE86

The following Minor Planet Electronic Circular may be linked-to from your own Web pages, but must not otherwise be redistributed electronically.


Read MPEC 2004-B73 Read MPEC 2004-B75


M.P.E.C. 2004-B74                                Issued 2004 Jan. 31, 02:03 UT

     The Minor Planet Electronic Circulars contain information on unusual
         minor planets and routine data on comets.  They are published
   on behalf of Commission 20 of the International Astronomical Union by the
          Minor Planet Center, Smithsonian Astrophysical Observatory,
                          Cambridge, MA 02138, U.S.A.

         Supported in part by the Steven and Michele Kirsch Foundation
             Prepared using the Tamkin Foundation Computer Network

                              MPC@CFA.HARVARD.EDU
          URL http://cfa-www.harvard.edu/iau/mpc.html  ISSN 1523-6714

                                   2004 BE86

Observations:
     K04B86E* C2004 01 28.35331 11 34 54.52 -04 35 39.4          19.8   EB074704
     K04B86E  C2004 01 28.36564 11 34 56.98 -04 35 47.2          20.0   EB074704
     K04B86E  C2004 01 28.37798 11 34 59.30 -04 35 53.3          20.3   EB074704
     K04B86E  C2004 01 28.39037 11 35 01.83 -04 36 00.2          20.1   EB074704
     K04B86E  C2004 01 29.13462 11 37 37.00 -04 42 37.3                 EB074620
     K04B86E  C2004 01 29.40615 11 38 34.72 -04 44 53.3          19.8   EB074704
     K04B86E  C2004 01 29.41889 11 38 37.12 -04 45 01.5          19.2   EB074704
     K04B86E  C2004 01 29.43116 11 38 39.64 -04 45 07.0          19.3   EB074704
     K04B86E  C2004 01 29.44363 11 38 42.04 -04 45 12.7          19.7   EB074704
     K04B86E  C2004 01 30.39609 11 42 04.66 -04 53 08.6          19.2   EB074704
     K04B86E  C2004 01 30.40831 11 42 07.01 -04 53 14.7          19.6   EB074704
     K04B86E  C2004 01 30.43317 11 42 11.96 -04 53 26.5          19.2   EB074704
     K04B86E  C2004 01 30.44560 11 42 14.43 -04 53 32.3          19.4   EB074704

Observer details:
620 Observatorio Astronomico de Mallorca.  Observers S. Sanchez, R. Stoss,
    J. Nomen.  0.30-m f/9 Schmidt-Cassegrain + CCD.
704 Lincoln Laboratory ETS, New Mexico.  Observers M. Blythe, F. Shelly,
    M. Bezpalko, R. Huber, L. Manguso, D. Torres, R. Kracke, M. McCleary,
    H. Stange, A. Milner.  Measurers J. Stuart, R. Sayer, J. Evans, J. Kommers.
    1.0-m f/2.15 reflector + CCD.

Orbital elements:
2004 BE86
Epoch 2004 Jan. 16.0 TT = JDT 2453020.5                 MPC
M 332.15977              (2000.0)            P               Q
n   0.57193751     Peri.   14.60593     -0.98274112     -0.18285845
a   1.4373758      Node   154.80587     +0.16244677     -0.92542082
e   0.2361474      Incl.    3.76824     +0.08849262     -0.33190224
P   1.72           H   20.4           G   0.15
From 13 observations 2004 Jan. 28-30.

Ephemeris:
2004 BE86                a,e,i = 1.44, 0.24, 4                   q = 1.0979
Date    TT    R. A. (2000) Decl.     Delta      r     Elong.  Phase     V
2004 01 26    11 26.80   -04 13.0    0.218    1.139   130.9    40.8    19.0
2004 02 05    12 02.49   -05 30.5    0.188    1.121   132.5    40.4    18.6
2004 02 15    12 41.13   -05 54.1    0.165    1.108   133.8    40.0    18.3
2004 02 25    13 20.62   -05 10.6    0.149    1.100   135.0    39.5    18.0
2004 03 06    13 57.79   -03 24.1    0.140    1.098   136.5    38.5    17.9
2004 03 16    14 29.14   -00 56.4    0.137    1.102   138.7    36.6    17.8
2004 03 26    14 51.85   +01 42.0    0.140    1.111   142.0    33.6    17.8
2004 04 05    15 05.33   +03 56.6    0.147    1.126   146.4    29.4    17.8
2004 04 15    15 10.63   +05 23.7    0.158    1.145   151.5    24.7    17.8
2004 04 25    15 09.88   +05 49.2    0.175    1.168   156.0    20.5    18.0
2004 05 05    15 06.39   +05 09.5    0.199    1.196   158.2    18.3    18.2
2004 05 15    15 02.93   +03 36.4    0.230    1.225   156.7    19.1    18.6
2004 05 25    15 01.48   +01 25.6    0.269    1.257   152.3    22.0    19.1
2004 06 04    15 03.18   -01 06.2    0.317    1.291   146.6    25.7    19.6
2004 06 14    15 08.12   -03 44.9    0.373    1.325   140.5    29.2    20.1
2004 06 24    15 16.13   -06 22.1    0.439    1.360   134.4    32.2    20.6
2004 07 04    15 26.89   -08 52.4    0.512    1.395   128.7    34.7    21.1
2004 07 14    15 39.92   -11 12.1    0.593    1.429   123.1    36.6    21.5
2004 07 24    15 54.90   -13 19.9    0.681    1.463   117.8    37.9    21.9

Timothy B. Spahr             (C) Copyright 2004 MPC           M.P.E.C. 2004-B74

Read MPEC 2004-B73 Read MPEC 2004-B75


Our Web policy. Index to the CBAT/MPC/ICQ pages.


Valid HTML 4.01!